Location: Montague
(41.3030°N, 74.7940°W)
Time: 18:33:33
(UTC-04:00)

Daily predictions for brighter satellites

Satellite Brightness Start Highest point End
(mag) Time Altitude Azimuth Time Altitude Azimuth Time Altitude Azimuth
Cosmos 1709 Rocket 4.1 20:46:08 10° N 20:52:28 88° W 20:58:39 10° S
Cosmos 1743 3.6 20:49:49 10° NNE 20:53:22 33° ENE 20:56:54 10° SE
Cosmos 1346 4.5 20:52:52 10° SE 20:54:52 18° E 20:56:52 10° NE
Iridium 4 Rocket 3.7 20:50:08 10° N 20:55:06 81° W 21:00:32 10° S
CZ-2D R/B 4.4 20:51:40 10° S 20:55:19 43° W 20:59:00 10° NNW
Envisat 3.0 20:51:20 10° SSE 20:56:23 77° ENE 21:01:29 10° N
Spot 1 4.2 20:54:41 10° SSE 20:59:16 75° ENE 21:03:37 10° N
ASTRO E2 4.3 20:57:25 10° SW 21:00:20 20° S 21:03:16 10° SE
ASTEX 1 4.2 20:57:39 10° SE 21:02:01 33° ENE 21:06:23 10° NNE
Aureole 3 Rocket 4.2 20:56:16 10° SSE 21:02:42 44° E 21:07:23 10° NNE
Tiangong 2 2.3 21:07:56 10° SSW 21:10:33 24° SSE 21:13:11 10° E
Aureole 1 Rocket 3.4 21:09:20 10° SSE 21:12:12 24° ESE 21:14:47 10° NE
NOSS 2-2 (E) 3.4 21:09:16 10° SSW 21:13:16 79° ESE 21:17:54 10° NE
DNEPR-1 R/B 4.3 21:12:38 10° NNW 21:16:39 41° NE 21:20:18 14° ESE
SL-08 ROCKET BODY 4.5 21:12:28 10° N 21:18:39 79° E 21:24:51 10° S
Meteor 2-4 Rocket 4.1 21:14:47 10° SSE 21:20:06 46° E 21:25:36 10° NNE
USA 186 4.2 21:20:14 10° SSW 21:22:48 22° W 21:25:21 10° NW
ISS -2.7 21:20:11 10° S 21:22:54 24° SE 21:25:37 10° ENE
Cosmos 1666 2.9 21:20:23 10° N 21:24:03 50° E 21:26:56 15° SSE
Meteor 2-13 Rocket 4.4 21:19:59 10° N 21:26:03 70° E 21:32:05 10° SSE
OAO 2 Rocket 3.9 21:22:47 10° WSW 21:27:19 37° S 21:31:02 14° ESE
Cosmos 923 Rocket 4.0 21:22:13 10° SSW 21:27:33 81° ESE 21:32:53 10° NNE
Cosmos 2184 Rocket 4.0 21:26:11 10° N 21:32:35 79° E 21:38:52 10° S
Cosmos 2074 Rocket 4.0 21:26:30 10° N 21:32:47 82° E 21:39:04 10° S
Cosmos 1536 Rocket 4.2 21:28:32 10° SSW 21:32:48 57° W 21:37:04 10° N
CZ-3A R/B 2.1 21:29:23 10° SSW 21:33:03 20° SSE 21:33:08 20° SE
Cosmos 1437 3.9 21:31:53 10° SSW 21:34:58 44° WNW 21:38:05 10° N
CZ-4B DEB 3.9 21:32:18 10° SSW 21:35:06 37° W 21:37:55 10° NNW
Helios 1A 4.3 21:31:17 10° SSW 21:35:14 39° W 21:39:12 10° NNW
USA 245 3.7 21:38:45 22° E 21:39:21 24° ENE 21:41:26 10° NNE
Meteor 1-29 4.3 21:36:42 10° N 21:39:54 40° WNW 21:43:04 10° SW
Meteor 1-19 Rocket 4.4 21:35:29 10° S 21:41:19 82° W 21:47:06 10° N
Intercosmos 24 4.3 21:37:29 10° N 21:41:20 41° ENE 21:43:05 23° SE
YAOGAN 11 4.4 21:40:58 20° SE 21:43:40 51° ENE 21:47:52 10° N
YAOGAN 6 3.1 21:42:06 12° S 21:45:12 53° W 21:48:39 10° NNW
Cosmos 1656 Rocket 3.9 21:39:51 10° NNW 21:45:15 66° WSW 21:49:50 15° S
ERS-1 Rocket 3.0 21:41:29 14° SSE 21:45:52 85° WSW 21:50:55 10° NNW
Meteor 1-23 Rocket 4.2 21:43:46 10° S 21:49:15 64° E 21:54:48 10° NNE
MetOp-A 4.1 21:45:09 17° SSE 21:49:18 77° ENE 21:54:41 10° N
MOS 1-B Rocket 3.9 21:46:03 17° SSE 21:50:29 75° ENE 21:56:47 10° N
Cosmos 405 Rocket 3.7 21:48:23 10° SSW 21:52:00 47° WNW 21:55:42 10° N
GENESIS II 4.2 21:49:10 10° NNW 21:53:09 73° NE 21:55:01 29° SE
H-2A R/B 2.6 21:52:51 23° ESE 21:55:26 39° ENE 22:00:05 10° N
Cosmos 2058 Rocket 4.3 21:53:23 10° NNE 21:57:09 27° ENE 21:58:34 22° ESE
Meteor 1-15 Rocket 4.3 21:52:27 10° N 21:58:01 63° ENE 22:01:25 24° SSE
Cosmos 2112 Rocket 4.1 21:55:09 10° SSW 22:00:23 79° WNW 22:05:37 10° NNE
Cosmos 1943 Rocket 4.3 21:56:53 10° NW 22:00:56 21° W 22:04:57 10° SSW
Cosmos 192 4.3 21:56:08 10° SSW 22:01:02 87° ESE 22:05:58 10° NNE
Cosmos 1025 Rocket 2.9 21:58:34 18° S 22:01:43 80° E 22:06:00 10° N
CENTAUR R/B 3.5 21:55:05 10° NW 22:02:55 61° WSW 22:09:18 18° SSE
Cosmos 1441 Rocket 3.5 22:01:18 12° SSW 22:04:42 65° W 22:08:26 10° N
Nadezhda 1 Rocket 4.2 22:01:31 10° SSW 22:07:51 74° W 22:14:17 10° N
Cosmos 1624 Rocket 4.3 22:03:12 10° NNW 22:08:24 57° ENE 22:10:57 29° SE
PSLV R/B 2.9 22:06:58 10° W 22:10:07 79° S 22:10:40 56° ESE
NOAA 11 4.5 22:07:48 18° S 22:11:52 66° WSW 22:17:17 10° NNW
Cosmos 2154 Rocket 4.0 22:09:48 10° N 22:16:12 88° W 22:20:26 23° S
SL-08 RB Rocket 3.6 22:14:43 32° SSE 22:16:46 85° ENE 22:21:15 10° NNW
ARGOS 3.2 22:13:33 24° S 22:16:53 81° WSW 22:22:21 10° NNW
COSMOS 2406 4.2 22:11:32 10° SW 22:17:04 48° WNW 22:22:36 10° NNE
Nimbus 7 Rocket 4.4 22:11:45 10° NNE 22:17:49 73° ESE 22:22:26 18° S
SL-27 R/B 3.5 22:15:06 10° SW 22:18:38 47° WNW 22:22:11 10° N
SL-8 Rocket 4.5 22:14:23 10° N 22:20:22 45° ENE 22:23:02 30° SE
Landsat 7 4.1 22:21:40 35° SE 22:23:21 55° ENE 22:28:01 10° N
SPOT 5 2.8 22:23:05 30° S 22:25:06 63° WSW 22:29:25 10° NNW
H-2A R/B 2.9 22:24:49 32° ESE 22:26:00 38° ENE 22:30:13 10° N
Cosmos 2278 4.1 22:20:50 10° NNW 22:26:24 50° ENE 22:28:45 32° ESE
Cosmos 2056 Rocket 3.4 22:21:59 10° NNW 22:27:11 77° ENE 22:29:09 38° SSE
Cosmos 2082 Rocket 2.8 22:28:02 32° ESE 22:28:52 34° ESE 22:33:55 10° NE
Cosmos 405 4.5 22:30:19 10° NNW 22:33:32 32° W 22:34:56 23° SW
Iridium 82 4.4 22:33:42 10° N 22:37:15 70° E 22:37:24 69° ESE
Terra 2.1 22:37:12 42° ESE 22:38:25 54° ENE 22:43:04 10° N
CZ-4B R/B 4.4 22:34:29 10° NE 22:38:58 31° E 22:39:09 31° E
Cosmos 839 Rocket 4.3 22:34:38 10° NNW 22:41:12 79° ENE 22:44:54 34° SE
Cosmos 2341 Rocket 4.1 22:37:57 10° N 22:44:16 74° W 22:47:39 30° S
Cosmos 967 Rocket 4.3 22:38:36 10° SSW 22:44:51 84° ESE 22:51:10 10° NNE
Cosmos 2369 3.8 22:39:19 10° NNW 22:45:03 70° ENE 22:46:58 42° SE
SPOT 1/Viking Rocket 3.9 22:44:17 33° SSW 22:46:31 60° WSW 22:51:38 10° NNW
COSMOS 2487 2.9 22:47:21 50° ENE 22:47:21 50° ENE 22:50:15 10° NNE
Tiangong 2 2.6 22:43:54 10° WSW 22:45:37 29° WSW 22:45:37 29° WSW
Cosmos 1437 Rocket 3.7 22:44:51 10° NNW 22:48:27 40° W 22:49:25 33° SW
Cosmos 1697 Rocket 3.4 22:49:24 10° NNW 22:54:45 43° ENE 22:56:25 34° E
IGS 5A 3.3 22:56:43 72° SE 22:57:03 79° ENE 23:01:14 10° N
ISS -2.5 22:56:06 10° WSW 22:59:15 41° NNW 23:02:25 10° NE
Cosmos 1452 Rocket 3.7 22:54:13 10° NNW 22:59:27 61° ENE 23:00:34 49° ESE
Cosmos 2218 Rocket 3.9 22:54:29 10° N 23:00:39 78° E 23:02:38 46° SSE
Cosmos 1271 Rocket 4.3 23:02:49 10° NNE 23:05:37 26° ENE 23:05:37 26° ENE
Cosmos 2228 3.2 23:02:06 10° NNW 23:06:22 62° W 23:06:54 56° SW
Cosmos 1602 Rocket 3.5 23:10:37 70° E 23:10:37 70° E 23:14:51 10° NNE
deb Chang Zheng 4 3.4 23:06:46 10° NNE 23:11:06 85° WNW 23:11:26 75° SSW
OAO 2 Rocket 4.4 23:07:00 10° WSW 23:10:00 30° SW 23:10:00 30° SW
Cosmos 921 Rocket 3.5 23:08:02 10° NNW 23:12:24 51° WSW 23:12:53 48° SW
Cosmos 1833 Rocket 2.5 23:11:23 54° S 23:12:37 74° ESE 23:18:14 10° NNE
Cosmos 1656 3.5 23:09:48 10° NNW 23:15:17 87° ENE 23:16:17 61° SSE
Cosmos 1066 Rocket 4.2 23:15:05 43° SSW 23:16:53 74° W 23:22:30 10° N
Lacrosse 5 rocket 4.5 23:16:47 10° NNW 23:18:57 13° NNE 23:21:07 10° NE
Meteor 1-21 4.3 23:19:44 54° ESE 23:20:23 58° E 23:26:00 10° NNE
SL-19 R/B 4.2 23:15:48 10° N 23:21:11 73° WNW 23:22:49 44° SW
Cosmos 468 4.3 23:24:10 70° SSE 23:24:38 76° ESE 23:29:56 10° NNE
CZ-4 R/B 3.9 23:20:36 10° N 23:25:38 81° WNW 23:26:31 61° SSW
Cosmos 1766 3.7 23:21:57 10° N 23:25:11 56° NNE 23:25:11 56° NNE
Nadezhda 3 Rocket 4.2 23:29:12 51° SE 23:30:15 57° E 23:36:28 10° NNE
Meteor 1-4 Rocket 3.6 23:27:33 10° NNW 23:30:20 41° WNW 23:30:20 41° WNW
USA 267 3.1 23:24:42 10° NE 23:31:15 71° SE 23:34:02 37° SSW
Meteor 2-14 Rocket 4.3 23:27:47 10° N 23:33:54 86° W 23:35:09 59° S
H-2A R/B 3.6 23:33:29 20° WSW 23:35:00 23° W 23:38:55 10° NW
Cosmos 1980 Rocket 2.3 23:36:02 10° NNW 23:41:39 61° ENE 23:42:26 55° E
SME Rocket 3.8 23:46:35 58° E 23:47:05 61° ENE 23:51:28 10° N
SeaSat 1 3.1 23:46:39 43° ENE 23:47:14 45° ENE 23:51:56 10° NNW
Cosmos 1821 Rocket 4.3 23:43:11 10° N 23:49:19 54° ENE 23:50:18 49° ESE
Cosmos 2322 Rocket 3.7 23:45:05 10° N 23:49:54 27° NE 23:51:42 23° E
Meteor 2-16 Rocket 4.5 23:47:25 10° NNW 23:53:31 69° W 23:54:38 57° SSW
